Anniston, AL

8:52 PM CDT on July 22, 2018 (GMT -0500)
Anniston Metro

Weather History for KANB - July, 2018

Change the Weather History Date:

Thursday, July 12, 2018

  Actual Average Record
Temperature  
Mean Temperature 84 °F 80 °F  
Max Temperature 95 °F 90 °F 102 °F (1980)
Min Temperature 73 °F 70 °F 57 °F (1953)
Cooling Degree Days 18    
Growing Degree Days 33 (Base 50)    
Moisture  
Dew Point 73 °F    
Average Humidity 70    
Maximum Humidity 94    
Minimum Humidity 46    
Precipitation  
Precipitation 0.00 in 0.15 in 2.33 in (1950)
Month to date precipitation 1.95 1.79  
Year to date precipitation 28.52 28.80  
Sea Level Pressure  
Sea Level Pressure 30.04 in    
Wind  
Wind Speed 3 mph (NNW)    
Max Wind Speed 15 mph    
Max Gust Speed 20 mph    
Visibility 10 miles    
Events Thunderstorm    
T = Trace of Precipitation, MM = Missing Value Source: NWS Daily Summary

Daily Weather History Graph

Daily Weather History Graph

Search for Another Location

Airport or City:

Astronomy

Jul. 12, 2018 Rise Set
Actual Time 5:42 AM CDT 7:55 PM CDT
Civil Twilight 5:14 AM CDT 8:23 PM CDT
Nautical Twilight 4:39 AM CDT 8:58 PM CDT
Astronomical Twilight 4:01 AM CDT 9:36 PM CDT
Moon 5:08 AM CDT (7/12) 7:39 PM CDT (7/12)
Length of Visible Light 15h 09m
Length of Day
14h 12m
Waning Crescent, 0% of the Moon is Illuminated
Jul 12
Waning Crescent
Jul 12
New
Jul 19
First Quarter
Jul 27
Full
Aug 4
Last Quarter

Hourly Weather History & Observations

Time (CDT) Temp. Heat Index Dew Point Humidity Pressure Visibility Wind Dir Wind Speed Gust Speed Precip Events Conditions
12:53 AM 73.9 °F - 72.0 °F 93% 30.01 in 9.0 mi SW 3.5 mph - N/A   Clear
1:53 AM 73.9 °F - 72.0 °F 93% 30.01 in 8.0 mi Calm Calm - N/A   Clear
2:53 AM 73.0 °F - 72.0 °F 96% 30.00 in 7.0 mi Calm Calm - N/A   Clear
3:53 AM 73.9 °F - 72.0 °F 93% 30.00 in 9.0 mi Calm Calm - N/A   Clear
4:53 AM 73.0 °F - 71.1 °F 93% 30.00 in 8.0 mi East 3.5 mph - N/A   Clear
5:53 AM 73.0 °F - 71.1 °F 93% 30.02 in 7.0 mi Calm Calm - N/A   Clear
6:53 AM 73.9 °F - 72.0 °F 93% 30.04 in 8.0 mi Calm Calm - N/A   Clear
7:53 AM 78.1 °F - 73.9 °F 87% 30.05 in 10.0 mi Calm Calm - N/A   Clear
8:53 AM 82.9 °F 90.2 °F 75.0 °F 77% 30.06 in 10.0 mi Calm Calm - N/A   Clear
9:53 AM 87.1 °F 96.3 °F 75.0 °F 67% 30.06 in 10.0 mi SW 3.5 mph - N/A   Clear
10:53 AM 89.1 °F 96.0 °F 72.0 °F 57% 30.07 in 10.0 mi WSW 5.8 mph - N/A   Clear
11:53 AM 90.0 °F 97.9 °F 73.0 °F 57% 30.07 in 10.0 mi Variable 4.6 mph - N/A   Clear
12:53 PM 91.9 °F 100.7 °F 73.0 °F 54% 30.06 in 10.0 mi West 6.9 mph - N/A   Scattered Clouds
1:53 PM 93.0 °F 99.0 °F 70.0 °F 47% 30.04 in 10.0 mi NNE 4.6 mph - N/A   Clear
2:53 PM 93.0 °F 100.1 °F 71.1 °F 49% 30.02 in 10.0 mi NW 8.1 mph - N/A   Scattered Clouds
3:53 PM 93.0 °F 99.0 °F 70.0 °F 47% 30.01 in 10.0 mi WNW 5.8 mph - N/A   Mostly Cloudy
4:46 PM 90.0 °F 96.9 °F 72.0 °F 55% 30.06 in 10.0 mi North 11.5 mph - N/A Thunderstorm Mostly Cloudy
4:53 PM 91.9 °F 100.7 °F 73.0 °F 54% 30.02 in 10.0 mi North 11.5 mph - N/A Thunderstorm Mostly Cloudy
5:01 PM 91.9 °F 100.7 °F 73.0 °F 54% 30.05 in 10.0 mi Variable 6.9 mph - N/A   Mostly Cloudy
5:53 PM 87.1 °F 94.5 °F 73.0 °F 63% 30.03 in 10.0 mi North 8.1 mph 18.4 mph N/A   Clear
6:53 PM 84.9 °F 90.7 °F 72.0 °F 65% 30.03 in 10.0 mi North 3.5 mph - N/A   Clear
7:53 PM 82.0 °F 87.9 °F 73.9 °F 76% 30.03 in 10.0 mi Calm Calm - N/A   Clear
8:53 PM 79.0 °F - 73.9 °F 84% 30.05 in 10.0 mi Calm Calm - N/A   Clear
9:53 PM 78.1 °F - 73.9 °F 87% 30.07 in 10.0 mi ENE 3.5 mph - N/A   Clear
10:53 PM 75.9 °F - 73.0 °F 91% 30.06 in 10.0 mi Calm Calm - N/A   Clear
11:53 PM 75.9 °F - 73.0 °F 91% 30.06 in 10.0 mi Calm Calm - N/A   Clear